Mombasa, Kenya

2:21 AM EAT on November 21, 2017 (GMT +0300)
Mombasa

Weather History for HKMO - May, 2014

Change the Weather History Date:

Wednesday, May 7, 2014

  Actual Average Record
Temperature  
Mean Temperature 78 °F -  
Max Temperature 85 °F 87 °F 90 °F (2012)
Min Temperature 72 °F 70 °F 72 °F (2014)
Cooling Degree Days 14    
Growing Degree Days 28 (Base 50)    
Moisture  
Dew Point 74 °F    
Average Humidity 88    
Maximum Humidity 100    
Minimum Humidity 61    
Precipitation  
Precipitation 0.08 in 0.26 in - ()
Sea Level Pressure  
Sea Level Pressure 29.91 in    
Wind  
Wind Speed 9 mph ()    
Max Wind Speed 18 mph    
Max Gust Speed -    
Visibility 7.6 miles    
Events Rain    
Averages and records for this station are not official NWS values.
T = Trace of Precipitation, MM = Missing Value Source: Averaged Metar Reports

Daily Weather History Graph

Daily Weather History Graph

Search for Another Location

Airport or City:

Trip Planner

Search our weather history database for the weather conditions in past years. The results will help you decide how hot, cold, wet, or windy it might be!

Date:

Astronomy

May. 07, 2014 Rise Set
Actual Time 6:19 AM EAT 6:16 PM EAT
Civil Twilight 5:57 AM EAT 6:38 PM EAT
Nautical Twilight 5:32 AM EAT 7:03 PM EAT
Astronomical Twilight 5:07 AM EAT 7:28 PM EAT
Moon 12:46 PM EAT (5/7) 12:17 AM EAT (5/7)
Length of Visible Light 12h 40m
Length of Day
11h 57m
First Quarter, 52% of the Moon is Illuminated
May 7
First Quarter
May 14
Full
May 21
Last Quarter
May 28
New
Jun 5
First Quarter

Hourly Weather History & Observations

Time (EAT) Temp. Heat Index Dew Point Humidity Pressure Visibility Wind Dir Wind Speed Gust Speed Precip Events Conditions
12:00 AM 76 °F - 74 °F 90% 29.94 in 12 mi SSW 13.8 mph - -   Scattered Clouds
12:00 AM 77.0 °F - 73.4 °F 89% 29.95 in 6.2 mi SSW 13.8 mph - N/A   Scattered Clouds
1:00 AM 75.2 °F - 73.4 °F 94% 29.92 in 6.2 mi SSW 11.5 mph - N/A   Mostly Cloudy
2:00 AM 75.2 °F - 71.6 °F 89% 29.92 in 6.2 mi SW 5.8 mph - N/A   Scattered Clouds
3:00 AM 74 °F - 72 °F 94% 29.91 in 12 mi WSW 5.8 mph - -   Scattered Clouds
3:00 AM 73.4 °F - 73.4 °F 100% 29.89 in 6.2 mi WSW 5.8 mph - N/A   Partly Cloudy
4:00 AM 73.4 °F - 73.4 °F 100% 29.89 in 6.2 mi WSW 9.2 mph - N/A   Scattered Clouds
5:00 AM 73.4 °F - 73.4 °F 100% 29.89 in 6.2 mi SW 6.9 mph - N/A   Scattered Clouds
6:00 AM 75 °F - 73 °F 90% 29.91 in 12 mi SSW 5.8 mph - -   Partly Cloudy
6:00 AM 75.2 °F - 73.4 °F 94% 29.92 in 6.2 mi SSW 5.8 mph - N/A   Mostly Cloudy
7:00 AM 75.2 °F - 73.4 °F 94% 29.95 in 2.5 mi SSW 17.3 mph - N/A Rain Light Rain Showers
8:00 AM 75.2 °F - 75.2 °F 100% 29.95 in 3.1 mi SW 5.8 mph - N/A Rain Light Rain Showers
9:00 AM 75 °F - 75 °F 99% 29.97 in 6 mi WSW 10.4 mph - - Rain Light Rain
9:00 AM 75.2 °F - 75.2 °F 100% 29.98 in 5.6 mi WSW 10.4 mph - N/A Rain Rain
10:00 AM 77.0 °F - 77.0 °F 100% 29.95 in 6.2 mi SSW 8.1 mph - N/A   Mostly Cloudy
11:00 AM 80.6 °F 86.2 °F 75.2 °F 84% 29.95 in 1.2 mi South 11.5 mph - N/A Rain Heavy Rain
12:00 PM 81 °F - 77 °F 85% 29.94 in 25 mi SSW 18.4 mph - -   Partly Cloudy
12:00 PM 80.6 °F 87.1 °F 77.0 °F 89% 29.95 in 6.2 mi SSW 18.4 mph - N/A   Mostly Cloudy
1:00 PM 80.6 °F 86.2 °F 75.2 °F 84% 29.89 in 6.2 mi SSW 8.1 mph - N/A   Mostly Cloudy
2:00 PM 84.2 °F 90.9 °F 73.4 °F 70% 29.86 in 6.2 mi South 6.9 mph - N/A   Mostly Cloudy
3:00 PM 84 °F - 73 °F 61% 29.86 in 19 mi SSE 11.5 mph - -   Partly Cloudy
3:00 PM 84.2 °F 90.9 °F 73.4 °F 70% 29.86 in 6.2 mi SSE 11.5 mph - N/A   Mostly Cloudy
4:00 PM 84.2 °F 90.9 °F 73.4 °F 70% 29.86 in 6.2 mi South 13.8 mph - N/A   Mostly Cloudy
5:00 PM 82.4 °F 88.2 °F 73.4 °F 74% 29.83 in 6.2 mi South 13.8 mph - N/A   Mostly Cloudy
6:00 PM 81 °F - 74 °F 74% 29.86 in 19 mi South 5.8 mph - -   Mostly Cloudy
6:00 PM 80.6 °F 85.4 °F 73.4 °F 79% 29.86 in 6.2 mi South 5.8 mph - N/A   Mostly Cloudy
7:00 PM 78.8 °F - 75.2 °F 89% 29.86 in 6.2 mi SSW 5.8 mph - N/A   Mostly Cloudy
8:00 PM 78.8 °F - 75.2 °F 89% 29.89 in 6.2 mi SSW 13.8 mph - N/A   Mostly Cloudy
9:00 PM 78 °F - 75 °F 86% 29.90 in 19 mi SSW 11.5 mph - -   Scattered Clouds
9:00 PM 78.8 °F - 75.2 °F 89% 29.89 in 6.2 mi SSW 11.5 mph - N/A   Mostly Cloudy
10:00 PM 78.8 °F - 75.2 °F 89% 29.92 in 6.2 mi SSW 13.8 mph - N/A   Mostly Cloudy
11:00 PM 77.0 °F - 75.2 °F 94% 29.92 in 6.2 mi SSW 9.2 mph - N/A   Mostly Cloudy